Location: Blairvadach
(56.2780°N, 6.9720°W)
Time: 20:19:26
(UTC+01:00)

OTV 5 (USA 277) - Pass Details

Date: 30 April 2019
Orbit: 310 x 325 km, 54.5° (Epoch: 08 May)

Event Time Altitude Azimuth Distance (km) Brightness Sun altitude
Rises 23:36:01 0° 275° (W) 2,040 ? -15.2°
Reaches altitude 10° 23:38:01 10° 268° (W) 1,209 ? -15.4°
Enters shadow 23:40:24 42° 209° (SSW) 460 ? -15.5°
